Theta_e
324 324 323 322 322 322 322 323 322 322 323 324 323 322 324 325 326 321 315 321 322 326 325 321 321 318 318 313 311 306 297 295 297 297 300 304 304 307 308 312 315 318 316 319 320
324 324 323 323 322 322 322 323 322 322 322 323 321 321 324 325 314 312 323 331 330 328 318 316 314 315 310 310 309 306 297 297 301 302 302 304 304 307 306 306 311 315 319 318 321
323 323 323 323 322 322 322 322 321 321 322 322 322 321 324 321 301 303 323 331 332 326 318 318 318 313 308 309 307 304 301 303 302 304 304 304 305 307 306 304 310 310 310 315 319
322 322 322 322 322 322 322 322 322 321 322 322 322 321 323 311 283 308 326 328 331 320 318 315 314 311 307 304 306 302 304 302 304 304 304 304 307 305 306 309 312 311 310 315 316
321 321 321 321 321 321 321 322 322 322 322 322 322 321 315 302 300 310 324 323 324 318 314 312 310 307 302 305 305 302 304 306 306 305 305 307 305 305 304 308 309 308 311 315 316
320 320 320 320 320 321 321 321 322 321 321 322 322 321 305 293 308 314 313 322 318 315 314 314 310 310 305 303 303 304 304 305 306 306 307 305 305 305 307 309 308 307 313 315 316
320 320 320 320 320 320 320 321 321 320 321 321 321 315 305 298 311 312 318 318 318 314 312 314 314 310 307 301 306 304 301 303 303 305 304 305 300 300 308 308 305 307 311 313 316
319 319 319 319 319 320 320 320 320 320 320 320 320 307 296 308 310 309 312 313 318 316 313 313 314 310 308 307 304 301 301 293 300 303 304 303 295 302 306 304 305 305 307 311 315
317 318 319 319 319 319 319 319 319 320 320 319 307 301 295 312 305 308 311 311 314 314 316 316 311 305 306 299 294 296 288 292 295 303 302 300 296 302 305 303 302 303 303 306 312
316 317 318 319 319 318 318 318 319 317 314 312 308 297 298 298 305 307 310 312 311 309 308 307 304 298 300 296 284 287 288 290 292 298 300 297 297 301 304 304 303 302 304 304 307
315 316 318 318 318 319 316 311 302 299 304 297 295 293 297 303 309 306 310 309 309 306 298 300 295 291 293 295 294 290 289 288 291 297 297 296 297 300 303 303 303 305 304 303 304
314 316 317 318 319 319 312 301 299 298 292 298 297 299 302 306 298 303 310 302 301 297 297 297 292 295 296 297 295 293 290 289 292 296 296 295 295 299 301 303 304 304 305 305 306
313 314 316 317 318 315 307 303 305 300 288 294 297 297 299 302 295 298 306 300 295 293 295 291 291 297 296 295 293 293 292 291 290 295 297 295 292 295 299 303 304 305 306 307 307
313 314 315 316 312 311 304 306 305 297 284 286 292 296 299 300 292 302 305 300 296 292 294 292 293 293 293 292 294 288 295 294 294 293 287 295 285 292 295 298 301 303 304 306 307
309 312 314 316 308 306 307 305 303 296 272 286 291 300 299 292 293 298 303 299 290 290 292 287 289 290 289 291 295 292 296 295 294 292 290 290 287 288 294 293 297 300 303 306 308
307 311 313 311 309 311 309 305 299 280 271 283 291 291 291 291 291 299 299 299 297 292 291 287 292 291 290 293 294 295 293 292 292 290 282 286 286 286 288 292 295 299 302 304 307
306 306 311 311 303 312 306 298 281 275 283 282 285 289 288 288 290 292 292 291 287 283 281 286 287 290 293 289 291 291 289 278 274 279 277 285 284 287 291 295 297 299 302 304 306
306 309 309 309 311 310 302 287 277 279 280 286 286 288 284 287 288 290 289 287 291 284 283 282 280 288 293 291 288 288 288 279 271 273 277 284 281 286 294 298 299 301 302 303 303
305 303 302 305 310 307 293 281 281 281 283 284 286 283 283 286 285 287 287 287 290 287 280 278 279 288 289 291 291 288 285 290 280 276 278 281 285 291 294 295 296 298 300 302 304
298 297 298 306 309 301 287 284 282 285 287 286 280 284 279 283 281 284 284 288 288 291 287 283 277 285 288 292 291 287 290 281 285 269 271 278 280 283 288 291 294 295 297 300 302
296 288 297 306 305 292 282 284 284 287 289 284 280 279 280 282 282 282 282 283 290 289 288 285 280 282 289 287 285 287 286 287 284 282 276 273 278 286 289 292 293 294 295 296 296
292 282 296 303 287 286 284 286 288 286 288 284 284 280 282 283 281 282 280 282 290 290 286 286 282 278 282 286 289 288 286 287 282 278 282 281 281 292 290 290 291 294 296 294 293
286 285 298 298 281 283 284 284 286 286 286 284 282 283 283 283 279 282 282 287 288 289 287 288 278 272 275 280 286 286 287 288 287 284 280 278 281 291 291 291 293 292 295 291 294
287 281 289 292 290 285 284 283 282 289 285 286 284 285 283 282 282 281 282 285 287 289 294 293 281 279 274 277 281 282 284 288 287 281 281 282 284 289 291 292 295 297 299 300 299
285 283 281 280 284 285 286 284 282 282 286 287 284 284 283 280 281 281 284 286 286 292 290 287 277 278 281 283 285 284 283 285 284 285 282 284 284 289 292 291 293 296 297 297 298
284 284 285 285 286 285 286 283 283 284 285 284 283 284 285 282 283 281 284 285 284 289 289 288 274 280 275 282 283 282 283 284 285 286 286 287 285 292 294 294 294 295 296 296 297
286 289 287 287 285 284 284 283 285 286 284 288 286 284 283 285 288 289 289 290 289 287 286 286 283 281 277 280 280 273 280 282 283 285 286 282 287 292 291 292 293 294 295 296 298
Wind_Speed
20 19 18 17 16 14 13 13 13 9 7 6 6 5 5 6 6 2 5 5 4 7 5 3 5 3 4 4 3 3 4 3 5 5 4 1 1 3 2 3 1 2 2 1 6
21 20 19 18 17 15 14 13 12 11 10 8 4 5 4 3 2 6 5 7 7 7 5 5 4 3 4 3 2 4 5 9 5 4 2 1 1 1 1 2 1 2 3 4 12
24 22 20 20 18 16 15 13 14 12 11 9 6 5 4 1 3 8 7 8 6 6 3 3 6 4 4 2 2 3 6 5 4 5 5 3 2 2 3 4 6 6 4 5 8
26 24 23 21 20 18 15 13 14 12 12 9 8 7 6 2 8 2 3 4 5 6 5 6 4 6 5 3 2 2 3 3 2 5 6 5 4 2 4 6 5 7 5 8 13
27 26 25 22 21 20 17 15 15 13 13 12 10 8 4 3 8 4 4 5 9 5 7 6 6 5 7 5 5 3 3 3 6 1 4 3 6 5 6 10 6 6 5 10 13
27 26 26 25 23 21 19 17 16 14 15 13 12 8 3 6 3 5 3 5 5 6 5 6 7 5 5 5 6 4 3 3 3 2 4 3 5 7 9 6 8 6 10 9 13
27 27 26 25 24 22 20 17 17 15 15 15 14 5 6 14 2 4 3 4 6 5 5 3 4 7 7 3 4 3 2 3 4 3 4 6 8 9 16 9 10 11 12 8 14
29 28 28 27 26 24 21 19 17 15 16 14 11 2 6 3 3 5 1 3 3 3 1 4 2 6 3 4 2 4 3 2 2 9 6 7 11 4 9 7 15 12 12 11 15
27 29 30 29 28 26 23 20 16 15 16 13 3 4 6 4 5 6 4 6 5 4 2 3 4 3 3 3 2 3 4 7 4 8 4 7 2 4 7 7 10 10 11 10 11
27 30 31 31 30 28 24 20 16 12 8 4 1 3 3 6 4 5 4 6 4 7 4 4 4 4 4 7 9 6 4 3 5 3 2 8 13 12 10 10 11 10 12 10 13
29 31 32 32 33 32 23 12 9 5 9 5 6 2 4 3 2 2 6 6 6 5 10 4 7 16 14 13 1 1 1 2 1 5 5 12 18 17 14 14 17 19 16 16 15
30 31 32 32 33 34 21 16 28 10 14 2 0 3 3 5 5 4 6 8 6 13 7 5 18 8 7 8 10 9 9 7 5 6 5 13 21 17 13 17 20 20 19 18 14
30 32 32 33 34 28 26 32 18 10 7 12 4 10 5 5 4 10 10 5 5 10 15 11 1 10 11 7 12 13 13 7 15 6 6 11 29 21 11 20 22 18 19 19 19
29 31 33 34 29 22 28 24 17 5 6 8 13 8 5 6 4 7 8 6 4 15 8 8 5 8 5 10 9 12 11 15 12 5 6 2 14 10 8 14 18 16 16 20 21
25 27 33 35 19 25 24 21 15 2 9 15 16 10 12 11 9 8 4 4 8 6 9 8 9 11 6 7 7 4 2 2 3 5 5 10 10 4 2 9 17 10 12 18 22
30 30 35 24 17 12 24 26 12 7 10 12 13 19 17 9 5 10 12 3 5 5 1 3 1 5 8 6 9 5 4 0 3 3 10 8 7 18 9 9 9 11 15 21 18
29 28 29 17 22 16 25 21 13 13 4 14 17 23 29 16 12 14 20 16 11 9 8 2 5 3 3 6 3 4 5 2 3 6 10 8 8 24 9 14 12 19 21 19 15
34 32 19 13 12 22 18 19 18 13 13 6 16 23 19 23 13 16 20 17 16 4 10 11 7 10 8 7 7 10 14 6 8 5 4 2 11 10 9 13 13 19 18 13 9
26 10 16 11 17 19 17 25 15 22 13 16 20 23 9 19 12 13 23 25 22 12 9 8 5 1 1 4 9 7 11 15 3 3 3 6 12 17 13 15 11 12 13 16 15
10 12 16 19 16 18 17 20 6 8 17 23 14 14 17 27 11 20 22 20 22 19 3 8 4 3 2 4 4 4 5 3 5 3 6 8 9 16 9 14 17 12 12 11 11
13 8 8 18 12 11 19 15 8 9 23 13 9 11 10 26 18 24 24 3 25 22 6 6 6 3 8 7 9 5 7 5 5 6 6 3 7 8 14 15 15 10 10 9 8
6 4 8 10 14 7 14 11 14 22 4 5 8 7 19 29 15 19 18 7 18 19 21 5 5 6 6 3 2 5 10 10 6 5 5 11 15 13 8 9 6 14 17 10 10
6 5 1 17 11 6 9 6 11 23 18 7 6 5 6 21 11 11 12 6 15 19 23 12 4 4 2 5 2 8 8 18 15 4 12 7 9 2 5 9 13 12 14 8 10
4 7 4 8 3 13 6 8 9 21 3 6 7 16 14 19 0 13 13 4 9 13 15 18 4 12 15 4 7 10 16 16 15 9 22 19 28 32 24 19 20 21 26 25 21
3 4 4 5 7 5 11 7 18 15 0 7 5 13 14 11 5 7 9 6 3 13 8 11 10 5 3 7 4 6 7 18 21 28 11 26 18 26 26 6 13 18 24 25 28
3 2 3 4 10 23 17 14 28 12 11 9 18 20 16 16 15 15 14 9 10 12 17 8 3 6 4 5 6 8 11 10 15 20 18 27 32 31 29 18 24 27 27 28 30
1 1 3 6 7 17 13 13 22 26 3 17 17 15 8 11 9 10 7 12 14 17 20 14 6 5 5 1 2 9 15 18 11 14 23 20 33 27 21 20 25 26 23 24 25
Wind_Direction
222 220 218 216 218 219 226 219 196 201 222 227 238 253 282 306 311 254 227 230 175 147 105 111 58 45 54 75 59 122 87 199 229 172 243 346 285 329 298 135 154 74 75 205 116
221 220 218 216 213 216 218 221 199 202 211 188 209 253 256 294 343 262 264 192 150 161 98 113 109 92 66 62 22 120 148 206 201 187 219 227 242 264 285 27 116 122 138 115 137
217 218 217 215 213 210 215 216 204 196 198 179 176 239 231 156 2 246 248 218 169 150 98 103 103 96 93 71 183 175 182 206 221 184 147 184 243 232 190 258 191 178 170 160 164
213 211 213 211 211 206 210 210 203 195 187 177 177 217 219 118 220 276 47 212 174 135 108 116 103 141 145 183 129 170 260 196 252 210 151 191 133 250 217 239 230 184 163 162 184
216 208 205 206 205 205 205 209 205 192 183 177 179 204 204 184 246 296 312 308 136 152 156 141 134 128 169 186 118 159 248 205 257 238 239 125 232 219 243 261 259 299 212 189 189
218 213 203 201 199 199 200 205 201 189 182 178 183 183 144 202 255 315 284 133 155 135 182 142 173 147 138 174 173 183 227 284 4 257 249 223 257 147 263 257 245 220 248 239 197
219 212 202 198 195 193 196 197 194 183 182 183 185 155 216 222 105 13 149 187 166 143 157 220 148 131 136 153 152 135 252 276 205 223 254 192 248 213 240 232 229 216 229 226 245
225 212 205 195 193 191 190 189 194 184 186 185 178 134 227 234 154 309 333 34 139 155 90 165 102 101 91 122 98 196 181 228 191 181 236 178 252 281 253 245 254 249 235 229 230
224 216 203 196 189 189 183 183 180 179 183 171 117 158 236 117 165 204 208 150 112 98 52 113 111 126 144 148 213 250 211 207 294 201 156 201 306 255 269 263 256 261 261 244 246
223 219 206 196 187 184 178 169 168 170 158 105 58 131 229 204 194 167 161 162 144 131 118 157 161 147 141 186 207 211 213 164 228 314 277 255 252 262 274 282 266 262 260 244 242
222 216 211 197 187 177 164 145 139 188 202 190 172 204 128 126 123 189 154 148 144 158 178 192 184 207 195 212 302 97 210 241 339 277 271 257 261 257 263 263 263 264 258 257 247
219 216 209 200 190 176 165 184 183 146 185 156 174 115 160 179 125 193 171 162 172 192 123 156 221 195 173 181 211 250 267 254 254 244 242 277 272 265 247 254 254 252 257 253 249
216 215 206 198 192 179 176 189 167 130 132 201 165 198 162 146 170 190 192 142 170 182 192 195 158 176 180 176 215 230 243 243 250 247 241 279 278 267 232 240 255 250 249 252 250
218 211 206 195 194 185 185 166 168 184 137 190 192 214 173 144 234 172 196 137 177 201 166 230 243 173 162 208 186 238 218 233 246 266 261 156 287 283 262 248 251 246 237 247 250
240 216 207 193 195 205 169 158 153 54 204 166 169 163 158 172 134 194 188 91 163 172 164 204 183 205 191 206 175 214 110 279 250 259 329 243 269 291 258 268 263 267 234 240 242
229 231 200 197 197 201 161 148 121 202 198 160 151 166 158 172 174 133 168 92 139 139 48 151 358 163 203 176 170 144 100 355 223 153 252 216 202 271 251 253 273 265 252 246 247
227 238 190 186 194 172 162 145 183 203 175 151 170 171 173 170 156 168 175 180 167 160 186 163 228 167 167 112 67 126 125 282 319 205 238 161 178 248 302 277 251 269 267 264 252
215 207 192 193 185 149 182 175 194 130 162 177 154 169 179 151 173 173 173 186 211 119 155 181 205 168 189 185 171 182 189 183 204 196 273 85 228 253 249 261 258 254 269 284 284
207 224 186 182 177 163 189 202 180 147 161 147 146 154 149 176 150 177 196 198 192 177 153 164 244 147 240 165 151 181 196 225 318 166 297 240 271 293 262 268 272 273 270 266 275
189 217 192 171 177 173 196 189 134 157 132 150 143 174 167 178 146 183 187 204 200 193 180 193 130 202 146 106 292 161 176 122 183 213 214 245 245 247 292 290 283 268 272 273 281
201 192 171 168 187 192 192 197 132 184 145 149 141 146 173 174 183 183 190 228 193 187 144 148 108 155 138 216 176 143 223 199 172 183 198 266 251 220 238 257 265 275 283 280 290
208 138 163 163 189 205 196 143 149 167 224 135 103 106 168 175 168 186 198 226 183 165 189 179 116 158 180 186 231 233 200 204 194 221 229 259 264 260 261 262 256 290 289 296 283
140 80 295 175 201 152 142 124 157 165 173 151 136 127 163 161 155 188 179 223 173 171 176 169 200 103 9 332 234 227 209 203 225 303 250 247 265 222 305 296 293 298 307 282 276
111 158 176 180 207 196 151 132 139 180 139 94 115 119 110 157 313 170 152 159 178 172 164 163 152 201 217 160 148 208 212 211 210 231 239 242 258 274 272 286 288 300 306 308 307
137 158 162 166 186 158 173 143 145 167 34 159 108 152 137 152 114 153 126 116 132 170 154 162 206 151 104 125 149 197 201 213 216 234 238 257 261 270 275 276 290 294 281 278 278
114 131 76 118 151 179 177 175 162 160 154 199 158 171 158 152 185 168 139 152 173 178 181 179 226 129 232 207 191 237 220 212 222 238 254 258 270 251 276 276 269 269 272 270 270
72 19 105 146 168 176 190 145 179 156 251 198 159 146 157 182 126 130 117 136 157 164 183 178 138 138 206 174 153 289 224 209 213 218 225 241 250 277 276 271 267 269 276 278 283